IRIDIUM 47 DEB

Satellite information

Favourite Embed

Satellite Type and Status

DEBRISIN ORBIT

Key statistics

Satellite IRIDIUM 47 DEB at a glance.

Uptime

10220

Days in orbit

Revolutions

≈ 14.6

Per day

Orbit

LEO

Low Earth Orbit

Inclination

86.0

Latest

Satellite identification and parameters

Extended collection of information and parameters for IRIDIUM 47 DEB.

Object identification

Identified? True

Debris? True

Object name: IRIDIUM 47 DEB

International designator: 1997-082P

Object number (NORAD): 40254

Object ID (CCSDS): 40254

Country: UNITED STATES OF AMERICA (US)

Current information (Y/N): Y

RCS size: SMALL

Orbital parameters

Period: 98.731 minutes

Inclination: 85.9855 deg

SMA: 7076.13 km

Apoapsis: 764.923 km

Periapsis: 631.067 km

RAAN: 310.2744 deg

Eccentricy: 0.00945827

Argument of periapsis: 79.1269 deg

Mean anomaly: 282.0565 deg

Mean motion: 14.58508742 rev/day

Mean motion (dot): 0.00057613 rev/day2

B* drag term: 0.011575318 1/REarth

Two-line elements (TLE)

Creation date: Dec. 12, 2025, 10:14 a.m.

Reference frame: TEME

Reference center: EARTH

Epoch: Dec. 9, 2025, 3:30 p.m. UTC

TLE line 0: 0 IRIDIUM 47 DEB

TLE line 1: 1 40254U 97082P 25343.64596866 .00057613 00000-0 11575-1 0 9990

TLE line 2: 2 40254 85.9855 310.2744 0094583 79.1269 282.0565 14.58508742574661

Live tracking on map

Real-time ground track for satellite IRIDIUM 47 DEB.

In-orbit conjunctions

A list of the most updated potential collisions computed for object IRIDIUM 47 DEB.

Target Orbit TCA Probability of collision Miss distance Type
CZ-6A DEB LEO 2024-09-28 03:31:22 0.0001912615 723.0 (m) DEBRIS

Associated space launch

Iridium provides global mobile telecommunications services using a constellation of 66 low earth orbit satellites in a 86.4° inclined orbit. Although 77 satellites were originally envisioned for the system and spawned the name based on the 77th element in the periodic table, the system has been scaled back. Motorola's Satellite Communications Group designed and manufactured the Iridium satellites with Lockheed Martin providing the LM-700A spacecraft buses.

IRIDIUM 47 DEB was lifted into orbit during the mission ‘Delta II | Iridium 45 to 49’, on board a Delta II space rocket.

The launch took place on Dec. 20, 1997, 1:16 p.m. from Space Launch Complex 2W.

For more information about the launch, click the button.

Launch to space Delta II | Iridium 45 to 49
Delta II | Iridium 45 to 49

Agency: N/A

Status: Launch Successful

Launch date: Dec. 20, 1997, 1:16 p.m. UTC

Rocket: Delta II

Launch pad: Space Launch Complex 2W

Location: Vandenberg SFB, CA, USA

...

Latest news about this satellite

There are no fresh news available about this satellite. Check back as we update our databases every day.


Newsletter sign-up

Weekly statistics, charts and insights to help you stay on top of the space industry.